Time,TemperatureF,DewpointF,PressureIn,WindDirection,WindDirectionDegrees,WindSpeedMPH,WindSpeedGustMPH,Humidity,HourlyPrecipIn,Conditions,Clouds,dailyrainin,SoftwareType,DateUTC
2013-03-17 00:22:00,51.0,48.0,29.96,WSW,249,0.0,-999.0,89,-99.99,,,-99.99,,2013-03-17 07:22:00,
2013-03-17 00:32:00,51.0,48.0,29.96,WSW,249,0.0,-999.0,89,-99.99,,,-99.99,,2013-03-17 07:32:00,
2013-03-17 00:42:00,51.0,48.0,29.96,WSW,249,0.0,-999.0,89,-99.99,,,-99.99,,2013-03-17 07:42:00,
2013-03-17 00:52:00,51.0,48.0,29.96,WSW,249,0.0,-999.0,89,-99.99,,,-99.99,,2013-03-17 07:52:00,
2013-03-17 01:01:00,51.0,48.0,29.96,WSW,249,0.0,-999.0,89,-99.99,,,-99.99,,2013-03-17 08:01:00,
2013-03-17 03:23:00,51.0,49.0,29.96,NNW,334,1.0,1.0,92,0.00,,,0.01,,2013-03-17 10:23:00,
2013-03-17 03:33:00,51.0,49.0,29.96,NNW,334,1.0,1.0,92,0.00,,,0.01,,2013-03-17 10:33:00,
2013-03-17 03:42:00,51.0,49.0,29.96,NNW,334,1.0,1.0,92,0.00,,,0.01,,2013-03-17 10:42:00,
2013-03-17 03:52:00,51.0,49.0,29.94,NNW,333,0.0,-999.0,92,-99.99,,,-99.99,,2013-03-17 10:52:00,
2013-03-17 04:02:00,51.0,49.0,29.94,NNW,333,0.0,-999.0,92,-99.99,,,-99.99,,2013-03-17 11:02:00,
2013-03-17 04:12:00,51.0,49.0,29.94,NNW,333,0.0,-999.0,92,-99.99,,,-99.99,,2013-03-17 11:12:00,
2013-03-17 04:22:00,51.0,49.0,29.94,NNW,333,0.0,-999.0,92,-99.99,,,-99.99,,2013-03-17 11:22:00,
2013-03-17 04:32:00,51.0,49.0,29.94,NNW,333,0.0,-999.0,92,-99.99,,,-99.99,,2013-03-17 11:32:00,
2013-03-17 05:32:00,51.0,49.0,29.96,NNW,346,0.0,0.0,93,0.00,,,0.01,,2013-03-17 12:32:00,
2013-03-17 05:52:00,51.0,49.0,29.96,NNW,346,0.0,0.0,93,0.00,,,0.01,,2013-03-17 12:52:00,
2013-03-17 06:02:00,51.0,49.0,29.96,NNW,346,0.0,0.0,93,0.00,,,0.01,,2013-03-17 13:02:00,
2013-03-17 06:12:00,51.0,49.0,29.96,NNW,346,0.0,0.0,93,0.00,,,0.01,,2013-03-17 13:12:00,
2013-03-17 06:21:00,51.0,49.0,29.96,NNW,346,0.0,0.0,93,0.00,,,0.01,,2013-03-17 13:21:00,
2013-03-17 07:52:00,50.0,48.0,29.97,NNW,346,0.0,0.0,94,0.00,,,0.01,,2013-03-17 14:52:00,
2013-03-17 08:02:00,50.0,48.0,29.97,NNW,346,0.0,0.0,94,0.00,,,0.01,,2013-03-17 15:02:00,
2013-03-17 08:12:00,50.0,48.0,29.97,NNW,346,0.0,0.0,94,0.00,,,0.01,,2013-03-17 15:12:00,
2013-03-17 08:22:00,50.0,48.0,29.98,NNW,346,3.0,3.0,94,0.00,,,0.01,,2013-03-17 15:22:00,
2013-03-17 08:32:00,50.0,48.0,29.98,NNW,346,3.0,3.0,94,0.00,,,0.01,,2013-03-17 15:32:00,
2013-03-17 08:43:00,50.0,48.0,29.98,NNW,346,3.0,3.0,94,0.00,,,0.01,,2013-03-17 15:43:00,
2013-03-17 08:53:00,50.0,48.0,29.98,NNW,346,3.0,3.0,94,0.00,,,0.01,,2013-03-17 15:53:00,
2013-03-17 10:32:00,52.0,50.0,30.01,WNW,294,1.0,1.0,94,0.00,,,0.01,,2013-03-17 17:32:00,
2013-03-17 10:53:00,52.0,50.0,30.01,WNW,294,1.0,1.0,94,0.00,,,0.01,,2013-03-17 17:53:00,
2013-03-17 11:02:00,52.0,50.0,30.01,WNW,294,1.0,1.0,94,0.00,,,0.01,,2013-03-17 18:02:00,
2013-03-17 11:12:00,52.0,50.0,30.01,WNW,294,1.0,1.0,94,0.00,,,0.01,,2013-03-17 18:12:00,
2013-03-17 11:21:00,52.0,50.0,30.01,WNW,294,1.0,1.0,94,0.00,,,0.01,,2013-03-17 18:21:00,
2013-03-17 11:52:00,54.0,52.0,30.00,WSW,251,0.0,0.0,93,0.00,,,0.01,,2013-03-17 18:52:00,
2013-03-17 12:02:00,54.0,52.0,30.00,WSW,251,0.0,0.0,93,0.00,,,0.01,,2013-03-17 19:02:00,
2013-03-17 12:12:00,54.0,52.0,30.00,WSW,251,0.0,0.0,93,0.00,,,0.01,,2013-03-17 19:12:00,
2013-03-17 12:22:00,54.0,52.0,30.00,WSW,251,0.0,0.0,93,0.00,,,0.01,,2013-03-17 19:22:00,
2013-03-17 13:23:00,62.0,51.0,29.98,SSW,193,10.0,10.0,68,0.00,,,0.01,,2013-03-17 20:23:00,
2013-03-17 13:33:00,62.0,51.0,29.98,SSW,193,10.0,10.0,68,0.00,,,0.01,,2013-03-17 20:33:00,
2013-03-17 13:42:00,62.0,51.0,29.98,SSW,193,10.0,10.0,68,0.00,,,0.01,,2013-03-17 20:42:00,
2013-03-17 13:52:00,62.0,51.0,29.97,South,182,9.0,9.0,68,0.00,,,0.01,,2013-03-17 20:52:00,
2013-03-17 14:01:00,62.0,51.0,29.97,South,182,9.0,9.0,68,0.00,,,0.01,,2013-03-17 21:01:00,
2013-03-17 14:12:00,62.0,51.0,29.97,South,182,9.0,9.0,68,0.00,,,0.01,,2013-03-17 21:12:00,
2013-03-17 14:22:00,62.0,51.0,29.97,South,182,9.0,9.0,68,0.00,,,0.01,,2013-03-17 21:22:00,
2013-03-17 14:32:00,62.0,51.0,29.97,South,182,9.0,9.0,68,0.00,,,0.01,,2013-03-17 21:32:00,
2013-03-17 15:53:00,62.0,51.0,29.94,SSW,202,8.0,8.0,67,0.00,,,0.01,,2013-03-17 22:53:00,
2013-03-17 16:02:00,62.0,51.0,29.94,SSW,202,8.0,8.0,67,0.00,,,0.01,,2013-03-17 23:02:00,
2013-03-17 16:12:00,62.0,51.0,29.94,SSW,202,8.0,8.0,67,0.00,,,0.01,,2013-03-17 23:12:00,
2013-03-17 16:22:00,62.0,51.0,29.94,SSW,202,8.0,8.0,67,0.00,,,0.01,,2013-03-17 23:22:00,
2013-03-17 16:32:00,62.0,51.0,29.94,SSW,202,8.0,8.0,67,0.00,,,0.01,,2013-03-17 23:32:00,
2013-03-17 16:53:00,61.0,52.0,29.94,SSW,193,7.0,7.0,71,0.00,,,0.01,,2013-03-17 23:53:00,
2013-03-17 17:03:00,61.0,52.0,29.94,SSW,193,7.0,7.0,71,0.00,,,0.01,,2013-03-18 00:03:00,
2013-03-17 17:12:00,61.0,52.0,29.94,SSW,193,7.0,7.0,71,0.00,,,0.01,,2013-03-18 00:12:00,
2013-03-17 17:22:00,60.0,52.0,29.94,South,191,16.0,16.0,75,0.00,,,0.01,,2013-03-18 00:22:00,
2013-03-17 17:32:00,60.0,52.0,29.94,South,191,16.0,16.0,75,0.00,,,0.01,,2013-03-18 00:32:00,
2013-03-17 17:42:00,60.0,52.0,29.94,South,191,16.0,16.0,75,0.00,,,0.01,,2013-03-18 00:42:00,
2013-03-17 17:52:00,59.0,51.0,29.94,SSW,202,8.0,8.0,75,0.00,,,0.01,,2013-03-18 00:52:00,
2013-03-17 18:01:00,59.0,51.0,29.94,SSW,202,8.0,8.0,75,0.00,,,0.01,,2013-03-18 01:01:00,
2013-03-17 18:12:00,59.0,51.0,29.94,SSW,202,8.0,8.0,75,0.00,,,0.01,,2013-03-18 01:12:00,
2013-03-17 18:21:00,59.0,51.0,29.94,SSW,202,8.0,8.0,75,0.00,,,0.01,,2013-03-18 01:21:00,
2013-03-17 18:31:00,59.0,51.0,29.94,SSW,202,8.0,8.0,75,0.00,,,0.01,,2013-03-18 01:31:00,
2013-03-17 19:22:00,55.0,50.0,29.94,SSW,192,3.0,3.0,82,0.00,,,0.01,,2013-03-18 02:22:00,
2013-03-17 19:32:00,55.0,50.0,29.94,SSW,192,3.0,3.0,82,0.00,,,0.01,,2013-03-18 02:32:00,
2013-03-17 19:42:00,55.0,50.0,29.94,SSW,192,3.0,3.0,82,0.00,,,0.01,,2013-03-18 02:42:00,
2013-03-17 19:52:00,55.0,50.0,29.94,SSW,196,4.0,-999.0,83,-99.99,,,-99.99,,2013-03-18 02:52:00,
2013-03-17 20:02:00,55.0,50.0,29.94,SSW,196,4.0,-999.0,83,-99.99,,,-99.99,,2013-03-18 03:02:00,
2013-03-17 20:11:00,55.0,50.0,29.94,SSW,196,4.0,-999.0,83,-99.99,,,-99.99,,2013-03-18 03:11:00,
2013-03-17 20:21:00,55.0,50.0,29.94,SSW,196,4.0,-999.0,83,-99.99,,,-99.99,,2013-03-18 03:21:00,
2013-03-17 20:32:00,55.0,50.0,29.94,SSW,196,4.0,-999.0,83,-99.99,,,-99.99,,2013-03-18 03:32:00,
2013-03-17 20:53:00,54.0,50.0,29.95,SSW,198,3.0,3.0,85,0.00,,,0.01,,2013-03-18 03:53:00,
2013-03-17 21:02:00,54.0,50.0,29.95,SSW,198,3.0,3.0,85,0.00,,,0.01,,2013-03-18 04:02:00,
2013-03-17 21:12:00,54.0,50.0,29.95,SSW,198,3.0,3.0,85,0.00,,,0.01,,2013-03-18 04:12:00,
2013-03-17 21:22:00,54.0,50.0,29.95,SSW,198,3.0,3.0,85,0.00,,,0.01,,2013-03-18 04:22:00,
2013-03-17 21:32:00,54.0,50.0,29.95,SSW,198,3.0,3.0,85,0.00,,,0.01,,2013-03-18 04:32:00,
2013-03-17 21:52:00,54.0,50.0,29.96,SSW,198,0.0,0.0,86,0.00,,,0.01,,2013-03-18 04:52:00,
2013-03-17 22:02:00,54.0,50.0,29.96,SSW,198,0.0,0.0,86,0.00,,,0.01,,2013-03-18 05:02:00,
2013-03-17 22:12:00,54.0,50.0,29.96,SSW,198,0.0,0.0,86,0.00,,,0.01,,2013-03-18 05:12:00,
2013-03-17 22:22:00,54.0,50.0,29.96,SSW,198,0.0,0.0,86,0.00,,,0.01,,2013-03-18 05:22:00,
2013-03-17 22:32:00,54.0,50.0,29.96,SSW,198,0.0,0.0,86,0.00,,,0.01,,2013-03-18 05:32:00,